Time,TemperatureF,DewpointF,PressureIn,WindDirection,WindDirectionDegrees,WindSpeedMPH,WindSpeedGustMPH,Humidity,HourlyPrecipIn,Conditions,Clouds,dailyrainin,SoftwareType,DateUTC
2013-06-08 00:01:00,60.3,50.9,29.96,SSE,160,4.0,8.0,71,0.00,,,0.00,meteohub,2013-06-08 04:01:00,
2013-06-08 00:02:00,60.3,50.9,29.96,SSE,158,4.0,8.0,71,0.00,,,0.00,meteohub,2013-06-08 04:02:00,
2013-06-08 00:03:00,60.3,50.9,29.96,SW,216,2.0,8.0,71,0.00,,,0.00,meteohub,2013-06-08 04:03:00,
2013-06-08 00:08:00,60.3,50.9,29.96,ESE,122,4.0,6.0,71,0.00,,,0.00,meteohub,2013-06-08 04:08:00,
2013-06-08 00:13:00,60.1,50.7,29.96,SSE,157,0.0,4.0,71,0.00,,,0.00,meteohub,2013-06-08 04:13:00,
2013-06-08 00:18:00,60.1,50.7,29.96,SE,131,0.0,4.0,71,0.00,,,0.00,meteohub,2013-06-08 04:18:00,
2013-06-08 00:23:00,60.1,50.7,29.96,South,184,4.0,5.0,71,0.00,,,0.00,meteohub,2013-06-08 04:23:00,
2013-06-08 00:28:00,59.9,50.5,29.96,SSE,168,0.0,6.0,71,0.00,,,0.00,meteohub,2013-06-08 04:28:00,
2013-06-08 00:33:00,59.9,50.5,29.96,South,171,0.0,6.0,71,0.00,,,0.00,meteohub,2013-06-08 04:33:00,
2013-06-08 00:38:00,59.9,50.5,29.96,South,187,4.0,6.0,71,0.00,,,0.00,meteohub,2013-06-08 04:38:00,
2013-06-08 00:43:00,59.9,50.5,29.96,SE,143,4.0,6.0,71,0.00,,,0.00,meteohub,2013-06-08 04:43:00,
2013-06-08 00:48:00,59.9,50.5,29.96,SE,129,0.0,6.0,71,0.00,,,0.00,meteohub,2013-06-08 04:48:00,
2013-06-08 00:53:00,59.9,50.5,29.96,SSE,163,0.0,6.0,71,0.00,,,0.00,meteohub,2013-06-08 04:53:00,
2013-06-08 00:58:00,59.9,50.5,29.96,SSE,151,0.0,6.0,71,0.00,,,0.00,meteohub,2013-06-08 04:58:00,
2013-06-08 01:04:00,59.9,50.5,29.96,SE,130,0.0,6.0,71,0.00,,,0.00,meteohub,2013-06-08 05:04:00,
2013-06-08 01:09:00,59.9,50.5,29.96,SSE,152,3.0,5.0,71,0.00,,,0.00,meteohub,2013-06-08 05:09:00,
2013-06-08 01:14:00,59.9,50.5,29.96,SSE,162,3.0,5.0,71,0.00,,,0.00,meteohub,2013-06-08 05:14:00,
2013-06-08 01:19:00,59.7,50.4,29.96,SE,143,0.0,5.0,71,0.00,,,0.00,meteohub,2013-06-08 05:19:00,
2013-06-08 01:24:00,59.7,50.4,29.96,SSE,164,0.0,5.0,71,0.00,,,0.00,meteohub,2013-06-08 05:24:00,
2013-06-08 01:29:00,59.7,50.4,29.96,South,178,5.0,5.0,71,0.00,,,0.00,meteohub,2013-06-08 05:29:00,
2013-06-08 01:34:00,59.7,50.4,29.96,ESE,106,0.0,4.0,71,0.00,,,0.00,meteohub,2013-06-08 05:34:00,
2013-06-08 01:39:00,59.7,50.4,29.96,ESE,106,0.0,5.0,71,0.00,,,0.00,meteohub,2013-06-08 05:39:00,
2013-06-08 01:44:00,59.7,50.7,29.96,South,181,0.0,5.0,72,0.00,,,0.00,meteohub,2013-06-08 05:44:00,
2013-06-08 01:49:00,59.7,50.7,29.96,South,172,3.0,5.0,72,0.00,,,0.00,meteohub,2013-06-08 05:49:00,
2013-06-08 01:54:00,59.7,50.7,29.96,SSE,156,0.0,3.0,72,0.00,,,0.00,meteohub,2013-06-08 05:54:00,
2013-06-08 01:59:00,59.7,50.7,29.96,SSE,167,0.0,4.0,72,0.00,,,0.00,meteohub,2013-06-08 05:59:00,
2013-06-08 02:04:00,59.7,50.7,29.96,SSE,167,0.0,4.0,72,0.00,,,0.00,meteohub,2013-06-08 06:04:00,
2013-06-08 02:09:00,59.5,50.5,29.96,East,99,6.0,6.0,72,0.00,,,0.00,meteohub,2013-06-08 06:09:00,
2013-06-08 02:14:00,59.4,50.4,29.96,South,173,3.0,4.0,72,0.00,,,0.00,meteohub,2013-06-08 06:14:00,
2013-06-08 02:19:00,59.4,50.4,29.96,SW,220,0.0,8.0,72,0.00,,,0.00,meteohub,2013-06-08 06:19:00,
2013-06-08 02:25:00,59.4,50.4,29.96,South,183,0.0,8.0,72,0.00,,,0.00,meteohub,2013-06-08 06:25:00,
2013-06-08 02:30:00,59.4,50.4,29.96,South,183,0.0,8.0,72,0.00,,,0.00,meteohub,2013-06-08 06:30:00,
2013-06-08 02:35:00,59.4,50.4,29.96,SSE,163,0.0,4.0,72,0.00,,,0.00,meteohub,2013-06-08 06:35:00,
2013-06-08 02:40:00,59.4,50.4,29.96,SSE,163,0.0,4.0,72,0.00,,,0.00,meteohub,2013-06-08 06:40:00,
2013-06-08 02:45:00,59.4,50.4,29.96,SSE,163,0.0,4.0,72,0.00,,,0.00,meteohub,2013-06-08 06:45:00,
2013-06-08 02:50:00,59.4,50.7,29.96,SSE,163,0.0,0.0,73,0.00,,,0.00,meteohub,2013-06-08 06:50:00,
2013-06-08 02:55:00,59.4,50.4,29.96,SSE,163,0.0,0.0,72,0.00,,,0.00,meteohub,2013-06-08 06:55:00,
2013-06-08 03:00:00,59.4,50.4,29.96,SSE,163,0.0,0.0,72,0.00,,,0.00,meteohub,2013-06-08 07:00:00,
2013-06-08 03:05:00,59.5,50.9,29.96,SSE,163,0.0,0.0,73,0.00,,,0.00,meteohub,2013-06-08 07:05:00,
2013-06-08 03:10:00,59.5,50.9,29.96,SSE,163,0.0,0.0,73,0.00,,,0.00,meteohub,2013-06-08 07:10:00,
2013-06-08 03:15:00,59.5,50.9,29.96,SSE,163,0.0,0.0,73,0.00,,,0.00,meteohub,2013-06-08 07:15:00,
2013-06-08 03:20:00,59.5,50.9,29.96,SSE,163,0.0,0.0,73,0.00,,,0.00,meteohub,2013-06-08 07:20:00,
2013-06-08 03:25:00,59.5,50.9,29.96,SSE,163,0.0,0.0,73,0.00,,,0.00,meteohub,2013-06-08 07:25:00,
2013-06-08 03:30:00,59.5,50.9,29.96,SSE,163,0.0,0.0,73,0.00,,,0.00,meteohub,2013-06-08 07:30:00,
2013-06-08 03:35:00,59.5,50.9,29.96,SSE,163,0.0,0.0,73,0.00,,,0.00,meteohub,2013-06-08 07:35:00,
2013-06-08 03:40:00,59.5,50.9,29.96,SSE,163,0.0,0.0,73,0.00,,,0.00,meteohub,2013-06-08 07:40:00,
2013-06-08 03:45:00,59.4,50.7,29.96,SSE,163,0.0,0.0,73,0.00,,,0.00,meteohub,2013-06-08 07:45:00,
2013-06-08 03:51:00,59.4,50.7,29.96,SSE,163,0.0,0.0,73,0.00,,,0.00,meteohub,2013-06-08 07:51:00,
2013-06-08 03:56:00,59.4,50.7,29.96,SSE,163,0.0,0.0,73,0.00,,,0.00,meteohub,2013-06-08 07:56:00,
2013-06-08 04:01:00,59.2,50.5,29.96,SSE,163,0.0,0.0,73,0.00,,,0.00,meteohub,2013-06-08 08:01:00,
2013-06-08 04:06:00,59.2,50.5,29.96,SSE,163,0.0,0.0,73,0.00,,,0.00,meteohub,2013-06-08 08:06:00,
2013-06-08 04:11:00,59.4,50.7,29.96,SSE,163,0.0,0.0,73,0.00,,,0.00,meteohub,2013-06-08 08:11:00,
2013-06-08 04:16:00,59.2,50.5,29.96,SSE,163,0.0,0.0,73,0.00,,,0.00,meteohub,2013-06-08 08:16:00,
2013-06-08 04:21:00,59.2,50.5,29.96,SSE,163,0.0,0.0,73,0.00,,,0.00,meteohub,2013-06-08 08:21:00,
2013-06-08 04:26:00,59.2,50.5,29.96,SSE,163,0.0,0.0,73,0.00,,,0.00,meteohub,2013-06-08 08:26:00,
2013-06-08 04:31:00,59.2,50.5,29.96,SSE,163,0.0,0.0,73,0.00,,,0.00,meteohub,2013-06-08 08:31:00,
2013-06-08 04:36:00,59.2,50.9,29.96,SSE,163,0.0,0.0,74,0.00,,,0.00,meteohub,2013-06-08 08:36:00,
2013-06-08 04:41:00,59.2,50.9,29.96,SSE,163,0.0,0.0,74,0.00,,,0.00,meteohub,2013-06-08 08:41:00,
2013-06-08 04:46:00,59.2,50.9,29.96,SSE,163,0.0,0.0,74,0.00,,,0.00,meteohub,2013-06-08 08:46:00,
2013-06-08 04:51:00,59.2,50.9,29.96,SSE,163,0.0,0.0,74,0.00,,,0.00,meteohub,2013-06-08 08:51:00,
2013-06-08 04:56:00,59.2,50.9,29.96,SSE,163,0.0,0.0,74,0.00,,,0.00,meteohub,2013-06-08 08:56:00,
2013-06-08 05:01:00,59.0,51.1,29.96,SSE,163,0.0,0.0,75,0.00,,,0.00,meteohub,2013-06-08 09:01:00,
2013-06-08 05:07:00,59.0,51.1,29.96,SSE,163,0.0,0.0,75,0.00,,,0.00,meteohub,2013-06-08 09:07:00,
2013-06-08 05:12:00,59.0,51.1,29.96,SSE,163,0.0,0.0,75,0.00,,,0.00,meteohub,2013-06-08 09:12:00,
2013-06-08 05:17:00,58.8,51.3,29.96,SSE,163,0.0,0.0,76,0.00,,,0.00,meteohub,2013-06-08 09:17:00,
2013-06-08 05:22:00,58.8,51.3,29.96,SSE,163,0.0,0.0,76,0.00,,,0.00,meteohub,2013-06-08 09:22:00,
2013-06-08 05:27:00,58.8,51.3,29.96,SSE,163,0.0,0.0,76,0.00,,,0.00,meteohub,2013-06-08 09:27:00,
2013-06-08 05:32:00,58.8,51.3,29.96,SSE,163,0.0,0.0,76,0.00,,,0.00,meteohub,2013-06-08 09:32:00,
2013-06-08 05:37:00,58.8,51.6,29.96,SSE,163,0.0,0.0,77,0.00,,,0.00,meteohub,2013-06-08 09:37:00,
2013-06-08 05:42:00,58.8,51.6,29.96,SSE,163,0.0,0.0,77,0.00,,,0.00,meteohub,2013-06-08 09:42:00,
2013-06-08 05:47:00,58.8,51.6,29.96,SSE,163,0.0,0.0,77,0.00,,,0.00,meteohub,2013-06-08 09:47:00,
2013-06-08 05:52:00,58.8,52.0,29.96,SSE,163,0.0,0.0,78,0.00,,,0.00,meteohub,2013-06-08 09:52:00,
2013-06-08 05:57:00,58.6,51.8,29.99,SSE,163,0.0,0.0,78,0.00,,,0.00,meteohub,2013-06-08 09:57:00,
2013-06-08 06:02:00,58.6,51.8,29.99,SSE,163,0.0,0.0,78,0.00,,,0.00,meteohub,2013-06-08 10:02:00,
2013-06-08 06:07:00,58.6,51.8,29.99,SSE,163,0.0,3.0,78,0.00,,,0.00,meteohub,2013-06-08 10:07:00,
2013-06-08 06:12:00,58.6,51.8,29.99,SSE,163,0.0,3.0,78,0.00,,,0.00,meteohub,2013-06-08 10:12:00,
2013-06-08 06:17:00,58.6,52.2,29.99,SSE,163,0.0,3.0,79,0.00,,,0.00,meteohub,2013-06-08 10:17:00,
2013-06-08 06:22:00,58.6,52.2,29.99,SSE,163,0.0,0.0,79,0.00,,,0.00,meteohub,2013-06-08 10:22:00,
2013-06-08 06:27:00,58.6,52.2,29.99,SSE,163,0.0,0.0,79,0.00,,,0.00,meteohub,2013-06-08 10:27:00,
2013-06-08 06:32:00,58.8,52.3,29.99,SSE,163,0.0,0.0,79,0.00,,,0.00,meteohub,2013-06-08 10:32:00,
2013-06-08 06:37:00,58.8,52.7,29.99,SSE,163,0.0,0.0,80,0.00,,,0.00,meteohub,2013-06-08 10:37:00,
2013-06-08 06:42:00,58.8,52.7,29.99,SSE,163,0.0,0.0,80,0.00,,,0.00,meteohub,2013-06-08 10:42:00,
2013-06-08 06:47:00,58.8,52.7,29.99,SSE,163,0.0,0.0,80,0.00,,,0.00,meteohub,2013-06-08 10:47:00,
2013-06-08 06:52:00,59.0,52.9,29.99,SSE,163,0.0,0.0,80,0.00,,,0.00,meteohub,2013-06-08 10:52:00,
2013-06-08 06:57:00,59.2,53.1,30.01,SSE,163,0.0,0.0,80,0.00,,,0.00,meteohub,2013-06-08 10:57:00,
2013-06-08 07:02:00,59.2,53.1,30.01,SE,142,0.0,0.0,80,0.00,,,0.00,meteohub,2013-06-08 11:02:00,
2013-06-08 07:08:00,59.2,53.1,30.01,ESE,118,0.0,4.0,80,0.00,,,0.00,meteohub,2013-06-08 11:08:00,
2013-06-08 07:13:00,59.2,53.1,30.01,ESE,118,0.0,4.0,80,0.00,,,0.00,meteohub,2013-06-08 11:13:00,
2013-06-08 07:18:00,59.2,53.1,30.01,ESE,118,0.0,4.0,80,0.00,,,0.00,meteohub,2013-06-08 11:18:00,
2013-06-08 07:23:00,59.4,53.2,30.01,ESE,118,0.0,4.0,80,0.00,,,0.00,meteohub,2013-06-08 11:23:00,
2013-06-08 07:28:00,59.4,53.2,30.01,SSW,204,0.0,3.0,80,0.00,,,0.00,meteohub,2013-06-08 11:28:00,
2013-06-08 07:33:00,59.5,53.4,30.01,SSW,204,0.0,3.0,80,0.00,,,0.00,meteohub,2013-06-08 11:33:00,
2013-06-08 07:38:00,59.7,53.6,30.01,SE,124,4.0,4.0,80,0.00,,,0.00,meteohub,2013-06-08 11:38:00,
2013-06-08 07:43:00,59.5,53.4,30.01,ESE,107,3.0,4.0,80,0.00,,,0.00,meteohub,2013-06-08 11:43:00,
2013-06-08 07:48:00,59.5,53.4,30.01,South,182,0.0,4.0,80,0.00,,,0.00,meteohub,2013-06-08 11:48:00,
2013-06-08 07:53:00,59.7,53.6,30.01,South,182,0.0,4.0,80,0.00,,,0.00,meteohub,2013-06-08 11:53:00,
2013-06-08 07:58:00,59.9,53.8,30.01,South,182,0.0,4.0,80,0.00,,,0.00,meteohub,2013-06-08 11:58:00,
2013-06-08 08:03:00,60.1,53.6,30.01,South,182,0.0,4.0,79,0.00,,,0.00,meteohub,2013-06-08 12:03:00,
2013-06-08 08:09:00,60.3,53.8,30.01,SSE,151,0.0,4.0,79,0.00,,,0.00,meteohub,2013-06-08 12:09:00,
2013-06-08 08:14:00,60.4,54.0,30.01,SSE,151,2.0,3.0,79,0.00,,,0.00,meteohub,2013-06-08 12:14:00,
2013-06-08 08:19:00,60.6,54.1,30.01,SE,136,0.0,3.0,79,0.00,,,0.00,meteohub,2013-06-08 12:19:00,
2013-06-08 08:24:00,61.0,54.1,30.01,SE,137,0.0,3.0,78,0.00,,,0.00,meteohub,2013-06-08 12:24:00,
2013-06-08 08:29:00,61.3,54.5,30.04,ESE,110,0.0,3.0,78,0.00,,,0.00,meteohub,2013-06-08 12:29:00,
2013-06-08 08:34:00,61.7,54.5,30.04,ESE,104,4.0,4.0,77,0.00,,,0.00,meteohub,2013-06-08 12:34:00,
2013-06-08 08:39:00,61.9,54.3,30.04,SE,136,3.0,3.0,76,0.00,,,0.00,meteohub,2013-06-08 12:39:00,
2013-06-08 08:44:00,62.1,54.0,30.04,SE,136,0.0,4.0,75,0.00,,,0.00,meteohub,2013-06-08 12:44:00,
2013-06-08 08:49:00,62.1,53.6,30.04,East,95,0.0,4.0,74,0.00,,,0.00,meteohub,2013-06-08 12:49:00,
2013-06-08 08:54:00,62.1,53.2,30.04,East,98,4.0,4.0,73,0.00,,,0.00,meteohub,2013-06-08 12:54:00,
2013-06-08 08:59:00,62.1,53.2,30.04,East,98,0.0,4.0,73,0.00,,,0.00,meteohub,2013-06-08 12:59:00,
2013-06-08 09:04:00,62.2,53.1,30.04,East,98,0.0,4.0,72,0.00,,,0.00,meteohub,2013-06-08 13:04:00,
2013-06-08 09:09:00,62.2,53.1,30.04,East,98,0.0,4.0,72,0.00,,,0.00,meteohub,2013-06-08 13:09:00,
2013-06-08 09:14:00,62.6,53.1,30.04,East,98,0.0,0.0,71,0.00,,,0.00,meteohub,2013-06-08 13:14:00,
2013-06-08 09:19:00,62.6,52.7,30.04,East,98,0.0,0.0,70,0.00,,,0.00,meteohub,2013-06-08 13:19:00,
2013-06-08 09:24:00,63.0,52.7,30.04,SE,143,0.0,0.0,69,0.00,,,0.00,meteohub,2013-06-08 13:24:00,
2013-06-08 09:30:00,63.1,52.9,30.07,SE,144,0.0,3.0,69,0.00,,,0.00,meteohub,2013-06-08 13:30:00,
2013-06-08 09:35:00,63.7,52.9,30.07,East,79,3.0,3.0,68,0.00,,,0.00,meteohub,2013-06-08 13:35:00,
2013-06-08 09:40:00,63.9,52.3,30.07,NE,46,3.0,4.0,66,0.00,,,0.00,meteohub,2013-06-08 13:40:00,
2013-06-08 09:45:00,64.2,52.7,30.07,SSE,163,0.0,4.0,66,0.00,,,0.00,meteohub,2013-06-08 13:45:00,
2013-06-08 09:50:00,64.8,52.7,30.07,SSE,162,0.0,4.0,65,0.00,,,0.00,meteohub,2013-06-08 13:50:00,
2013-06-08 09:55:00,65.3,52.3,30.07,SSE,162,0.0,3.0,63,0.00,,,0.00,meteohub,2013-06-08 13:55:00,
2013-06-08 10:00:00,65.5,51.6,30.07,SE,125,0.0,4.0,61,0.00,,,0.00,meteohub,2013-06-08 14:00:00,
2013-06-08 10:05:00,65.5,50.7,30.07,East,100,3.0,4.0,59,0.00,,,0.00,meteohub,2013-06-08 14:05:00,
2013-06-08 10:10:00,65.3,49.6,30.07,NE,35,2.0,5.0,57,0.00,,,0.00,meteohub,2013-06-08 14:10:00,
2013-06-08 10:15:00,65.1,50.0,30.04,NNE,29,0.0,5.0,58,0.00,,,0.00,meteohub,2013-06-08 14:15:00,
2013-06-08 10:20:00,65.3,50.2,30.04,ESE,119,0.0,4.0,58,0.00,,,0.00,meteohub,2013-06-08 14:20:00,
2013-06-08 10:25:00,65.3,49.6,30.04,SSE,168,0.0,4.0,57,0.00,,,0.00,meteohub,2013-06-08 14:25:00,
2013-06-08 10:30:00,65.5,49.3,30.07,ENE,64,0.0,4.0,56,0.00,,,0.00,meteohub,2013-06-08 14:30:00,
2013-06-08 10:35:00,65.5,48.9,30.07,SE,142,4.0,4.0,55,0.00,,,0.00,meteohub,2013-06-08 14:35:00,
2013-06-08 10:40:00,65.1,48.6,30.07,East,96,3.0,4.0,55,0.00,,,0.00,meteohub,2013-06-08 14:40:00,
2013-06-08 10:45:00,64.8,47.7,30.07,SE,128,0.0,4.0,54,0.00,,,0.00,meteohub,2013-06-08 14:45:00,
2013-06-08 10:50:00,64.8,48.2,30.07,ESE,104,2.0,4.0,55,0.00,,,0.00,meteohub,2013-06-08 14:50:00,
2013-06-08 10:55:00,65.1,48.6,30.07,ESE,104,0.0,4.0,55,0.00,,,0.00,meteohub,2013-06-08 14:55:00,
2013-06-08 11:00:00,65.5,48.4,30.10,ESE,109,0.0,6.0,54,0.00,,,0.00,meteohub,2013-06-08 15:00:00,
2013-06-08 11:06:00,65.5,47.8,30.10,East,95,0.0,6.0,53,0.00,,,0.00,meteohub,2013-06-08 15:06:00,
2013-06-08 11:11:00,65.7,48.6,30.10,SSE,150,0.0,6.0,54,0.00,,,0.00,meteohub,2013-06-08 15:11:00,
2013-06-08 11:16:00,65.7,48.6,30.10,ENE,60,0.0,4.0,54,0.00,,,0.00,meteohub,2013-06-08 15:16:00,
2013-06-08 11:21:00,65.8,48.7,30.10,NE,52,0.0,4.0,54,0.00,,,0.00,meteohub,2013-06-08 15:21:00,
2013-06-08 11:26:00,66.2,48.6,30.10,ENE,76,0.0,3.0,53,0.00,,,0.00,meteohub,2013-06-08 15:26:00,
2013-06-08 11:31:00,66.7,49.1,30.10,ESE,115,3.0,3.0,53,0.00,,,0.00,meteohub,2013-06-08 15:31:00,
2013-06-08 11:36:00,66.6,48.4,30.10,SE,143,0.0,5.0,52,0.00,,,0.00,meteohub,2013-06-08 15:36:00,
2013-06-08 11:41:00,66.9,48.7,30.10,South,179,3.0,5.0,52,0.00,,,0.00,meteohub,2013-06-08 15:41:00,
2013-06-08 11:46:00,67.5,48.7,30.10,South,178,0.0,5.0,51,0.00,,,0.00,meteohub,2013-06-08 15:46:00,
2013-06-08 11:51:00,68.0,48.7,30.10,SSE,154,3.0,5.0,50,0.00,,,0.00,meteohub,2013-06-08 15:51:00,
2013-06-08 11:56:00,68.5,48.6,30.10,South,178,3.0,5.0,49,0.00,,,0.00,meteohub,2013-06-08 15:56:00,
2013-06-08 12:01:00,69.3,49.3,30.10,SE,142,0.0,5.0,49,0.00,,,0.00,meteohub,2013-06-08 16:01:00,
2013-06-08 12:06:00,69.8,49.3,30.10,SE,128,4.0,4.0,48,0.00,,,0.00,meteohub,2013-06-08 16:06:00,
2013-06-08 12:11:00,70.2,49.6,30.07,SSE,160,2.0,5.0,48,0.00,,,0.00,meteohub,2013-06-08 16:11:00,
2013-06-08 12:16:00,70.3,49.1,30.07,ESE,110,0.0,5.0,47,0.00,,,0.00,meteohub,2013-06-08 16:16:00,
2013-06-08 12:21:00,70.3,48.6,30.07,SSE,166,4.0,5.0,46,0.00,,,0.00,meteohub,2013-06-08 16:21:00,
2013-06-08 12:27:00,70.2,47.8,30.10,SE,145,0.0,6.0,45,0.00,,,0.00,meteohub,2013-06-08 16:27:00,
2013-06-08 12:32:00,70.0,47.7,30.10,SSE,167,0.0,6.0,45,0.00,,,0.00,meteohub,2013-06-08 16:32:00,
2013-06-08 12:37:00,69.8,47.5,30.10,ENE,69,3.0,6.0,45,0.00,,,0.00,meteohub,2013-06-08 16:37:00,
2013-06-08 12:42:00,69.4,47.8,30.10,NNE,24,3.0,5.0,46,0.00,,,0.00,meteohub,2013-06-08 16:42:00,
2013-06-08 12:47:00,69.1,47.5,30.10,NE,47,0.0,5.0,46,0.00,,,0.00,meteohub,2013-06-08 16:47:00,
2013-06-08 12:52:00,68.7,47.1,30.10,ESE,110,4.0,5.0,46,0.00,,,0.00,meteohub,2013-06-08 16:52:00,
2013-06-08 12:57:00,68.4,46.8,30.10,NE,35,0.0,4.0,46,0.00,,,0.00,meteohub,2013-06-08 16:57:00,
2013-06-08 13:02:00,68.4,47.3,30.10,SSE,167,3.0,4.0,47,0.00,,,0.00,meteohub,2013-06-08 17:02:00,
2013-06-08 13:07:00,69.1,48.0,30.10,ESE,120,3.0,4.0,47,0.00,,,0.00,meteohub,2013-06-08 17:07:00,
2013-06-08 13:12:00,69.8,48.0,30.10,SSW,207,0.0,4.0,46,0.00,,,0.00,meteohub,2013-06-08 17:12:00,
2013-06-08 13:17:00,70.5,48.2,30.10,SE,133,6.0,6.0,45,0.00,,,0.00,meteohub,2013-06-08 17:17:00,
2013-06-08 13:22:00,70.5,47.5,30.10,ESE,110,3.0,6.0,44,0.00,,,0.00,meteohub,2013-06-08 17:22:00,
2013-06-08 13:27:00,70.9,47.8,30.10,SSE,158,0.0,6.0,44,0.00,,,0.00,meteohub,2013-06-08 17:27:00,
2013-06-08 13:32:00,71.2,47.7,30.10,South,191,4.0,6.0,43,0.00,,,0.00,meteohub,2013-06-08 17:32:00,
2013-06-08 13:37:00,71.1,47.5,30.10,SE,128,0.0,5.0,43,0.00,,,0.00,meteohub,2013-06-08 17:37:00,
2013-06-08 13:42:00,71.2,48.2,30.10,SSE,153,0.0,5.0,44,0.00,,,0.00,meteohub,2013-06-08 17:42:00,
2013-06-08 13:47:00,71.6,48.6,30.10,East,88,0.0,5.0,44,0.00,,,0.00,meteohub,2013-06-08 17:47:00,
2013-06-08 13:52:00,71.4,47.8,30.10,East,94,2.0,4.0,43,0.00,,,0.00,meteohub,2013-06-08 17:52:00,
2013-06-08 13:57:00,71.2,47.7,30.10,SSE,148,3.0,4.0,43,0.00,,,0.00,meteohub,2013-06-08 17:57:00,
2013-06-08 14:02:00,71.4,48.4,30.10,ESE,117,0.0,5.0,44,0.00,,,0.00,meteohub,2013-06-08 18:02:00,
2013-06-08 14:08:00,71.4,48.4,30.10,ESE,120,0.0,5.0,44,0.00,,,0.00,meteohub,2013-06-08 18:08:00,
2013-06-08 14:13:00,71.4,47.8,30.10,East,91,4.0,5.0,43,0.00,,,0.00,meteohub,2013-06-08 18:13:00,
2013-06-08 14:18:00,71.8,48.0,30.10,SE,143,0.0,5.0,43,0.00,,,0.00,meteohub,2013-06-08 18:18:00,
2013-06-08 14:23:00,72.5,48.0,30.10,SE,141,3.0,5.0,42,0.00,,,0.00,meteohub,2013-06-08 18:23:00,
2013-06-08 14:28:00,72.7,47.7,30.10,ESE,115,4.0,6.0,41,0.00,,,0.00,meteohub,2013-06-08 18:28:00,
2013-06-08 14:33:00,72.5,46.8,30.10,ENE,67,0.0,6.0,40,0.00,,,0.00,meteohub,2013-06-08 18:33:00,
2013-06-08 14:38:00,72.5,48.0,30.10,SSE,158,5.0,6.0,42,0.00,,,0.00,meteohub,2013-06-08 18:38:00,
2013-06-08 14:43:00,72.9,48.4,30.10,SSE,152,4.0,6.0,42,0.00,,,0.00,meteohub,2013-06-08 18:43:00,
2013-06-08 14:48:00,73.0,48.6,30.10,SE,127,5.0,6.0,42,0.00,,,0.00,meteohub,2013-06-08 18:48:00,
2013-06-08 14:53:00,73.4,48.2,30.10,South,173,0.0,6.0,41,0.00,,,0.00,meteohub,2013-06-08 18:53:00,
2013-06-08 14:58:00,73.9,49.5,30.10,East,91,3.0,5.0,42,0.00,,,0.00,meteohub,2013-06-08 18:58:00,
2013-06-08 15:03:00,73.9,48.7,30.10,South,182,0.0,5.0,41,0.00,,,0.00,meteohub,2013-06-08 19:03:00,
2013-06-08 15:08:00,73.8,48.6,30.10,East,80,0.0,5.0,41,0.00,,,0.00,meteohub,2013-06-08 19:08:00,
2013-06-08 15:13:00,73.2,48.0,30.10,NE,37,2.0,4.0,41,0.00,,,0.00,meteohub,2013-06-08 19:13:00,
2013-06-08 15:18:00,73.2,48.7,30.10,ESE,111,5.0,5.0,42,0.00,,,0.00,meteohub,2013-06-08 19:18:00,
2013-06-08 15:23:00,73.9,48.7,30.10,SSE,165,3.0,5.0,41,0.00,,,0.00,meteohub,2013-06-08 19:23:00,
2013-06-08 15:28:00,74.3,49.1,30.10,South,186,4.0,5.0,41,0.00,,,0.00,meteohub,2013-06-08 19:28:00,
2013-06-08 15:33:00,74.5,48.6,30.10,South,171,0.0,5.0,40,0.00,,,0.00,meteohub,2013-06-08 19:33:00,
2013-06-08 15:39:00,73.8,48.0,30.10,South,170,6.0,6.0,40,0.00,,,0.00,meteohub,2013-06-08 19:39:00,
2013-06-08 15:44:00,73.2,48.0,30.10,East,96,0.0,5.0,41,0.00,,,0.00,meteohub,2013-06-08 19:44:00,
2013-06-08 15:49:00,73.0,48.0,30.10,ENE,68,0.0,6.0,41,0.00,,,0.00,meteohub,2013-06-08 19:49:00,
2013-06-08 15:54:00,73.4,48.2,30.10,SE,136,2.0,6.0,41,0.00,,,0.00,meteohub,2013-06-08 19:54:00,
2013-06-08 15:59:00,73.2,47.5,30.10,ESE,105,4.0,5.0,40,0.00,,,0.00,meteohub,2013-06-08 19:59:00,
2013-06-08 16:04:00,73.0,48.6,30.10,South,172,3.0,8.0,42,0.00,,,0.00,meteohub,2013-06-08 20:04:00,
2013-06-08 16:09:00,73.8,48.6,30.10,ENE,76,4.0,8.0,41,0.00,,,0.00,meteohub,2013-06-08 20:09:00,
2013-06-08 16:14:00,73.9,48.7,30.10,ESE,105,4.0,6.0,41,0.00,,,0.00,meteohub,2013-06-08 20:14:00,
2013-06-08 16:19:00,73.9,48.0,30.10,ESE,105,0.0,5.0,40,0.00,,,0.00,meteohub,2013-06-08 20:19:00,
2013-06-08 16:24:00,73.8,48.0,30.10,West,265,3.0,5.0,40,0.00,,,0.00,meteohub,2013-06-08 20:24:00,
2013-06-08 16:29:00,73.9,48.7,30.10,ESE,108,0.0,5.0,41,0.00,,,0.00,meteohub,2013-06-08 20:29:00,
2013-06-08 16:34:00,74.1,48.2,30.10,SSE,150,2.0,5.0,40,0.00,,,0.00,meteohub,2013-06-08 20:34:00,
2013-06-08 16:39:00,73.6,48.4,30.10,ESE,104,5.0,5.0,41,0.00,,,0.00,meteohub,2013-06-08 20:39:00,
2013-06-08 16:44:00,73.9,48.7,30.10,ENE,70,2.0,5.0,41,0.00,,,0.00,meteohub,2013-06-08 20:44:00,
2013-06-08 16:50:00,73.6,47.1,30.10,NE,50,3.0,5.0,39,0.00,,,0.00,meteohub,2013-06-08 20:50:00,
2013-06-08 16:55:00,73.4,48.2,30.10,NE,51,3.0,5.0,41,0.00,,,0.00,meteohub,2013-06-08 20:55:00,
2013-06-08 17:00:00,73.2,48.0,30.10,East,98,6.0,6.0,41,0.00,,,0.00,meteohub,2013-06-08 21:00:00,
2013-06-08 17:05:00,72.9,47.8,30.10,SE,134,3.0,6.0,41,0.00,,,0.00,meteohub,2013-06-08 21:05:00,
2013-06-08 17:10:00,72.7,47.7,30.10,ESE,115,0.0,6.0,41,0.00,,,0.00,meteohub,2013-06-08 21:10:00,
2013-06-08 17:15:00,72.9,47.8,30.10,East,90,0.0,6.0,41,0.00,,,0.00,meteohub,2013-06-08 21:15:00,
2013-06-08 17:20:00,73.4,48.2,30.10,East,93,0.0,4.0,41,0.00,,,0.00,meteohub,2013-06-08 21:20:00,
2013-06-08 17:25:00,73.8,48.0,30.10,NE,48,5.0,6.0,40,0.00,,,0.00,meteohub,2013-06-08 21:25:00,
2013-06-08 17:30:00,73.9,48.7,30.10,South,184,0.0,6.0,41,0.00,,,0.00,meteohub,2013-06-08 21:30:00,
2013-06-08 17:35:00,73.4,47.7,30.10,SSE,150,3.0,6.0,40,0.00,,,0.00,meteohub,2013-06-08 21:35:00,
2013-06-08 17:40:00,73.0,48.0,30.10,ENE,69,0.0,6.0,41,0.00,,,0.00,meteohub,2013-06-08 21:40:00,
2013-06-08 17:45:00,72.7,47.7,30.10,NE,51,3.0,6.0,41,0.00,,,0.00,meteohub,2013-06-08 21:45:00,
2013-06-08 17:50:00,72.9,48.4,30.10,ESE,117,3.0,5.0,42,0.00,,,0.00,meteohub,2013-06-08 21:50:00,
2013-06-08 17:55:00,73.2,48.7,30.10,ENE,75,2.0,7.0,42,0.00,,,0.00,meteohub,2013-06-08 21:55:00,
2013-06-08 18:01:00,73.0,47.3,30.10,NE,38,4.0,7.0,40,0.00,,,0.00,meteohub,2013-06-08 22:01:00,
2013-06-08 18:06:00,72.7,47.7,30.10,ESE,111,0.0,7.0,41,0.00,,,0.00,meteohub,2013-06-08 22:06:00,
2013-06-08 18:11:00,72.5,48.0,30.10,ESE,118,2.0,6.0,42,0.00,,,0.00,meteohub,2013-06-08 22:11:00,
2013-06-08 18:16:00,72.3,47.3,30.10,NE,34,2.0,6.0,41,0.00,,,0.00,meteohub,2013-06-08 22:16:00,
2013-06-08 18:21:00,72.7,48.2,30.10,ENE,59,2.0,4.0,42,0.00,,,0.00,meteohub,2013-06-08 22:21:00,
2013-06-08 18:26:00,72.9,47.8,30.13,SSE,154,3.0,5.0,41,0.00,,,0.00,meteohub,2013-06-08 22:26:00,
2013-06-08 18:31:00,72.7,47.7,30.13,SE,136,4.0,5.0,41,0.00,,,0.00,meteohub,2013-06-08 22:31:00,
2013-06-08 18:36:00,72.9,48.4,30.13,ESE,118,0.0,4.0,42,0.00,,,0.00,meteohub,2013-06-08 22:36:00,
2013-06-08 18:41:00,72.9,47.8,30.13,ESE,122,0.0,4.0,41,0.00,,,0.00,meteohub,2013-06-08 22:41:00,
2013-06-08 18:46:00,72.7,48.2,30.13,SSE,148,2.0,4.0,42,0.00,,,0.00,meteohub,2013-06-08 22:46:00,
2013-06-08 18:51:00,72.7,48.2,30.13,SE,145,0.0,4.0,42,0.00,,,0.00,meteohub,2013-06-08 22:51:00,
2013-06-08 18:57:00,72.5,48.0,30.13,SE,145,0.0,4.0,42,0.00,,,0.00,meteohub,2013-06-08 22:57:00,
2013-06-08 19:02:00,72.5,48.0,30.13,NNE,24,2.0,4.0,42,0.00,,,0.00,meteohub,2013-06-08 23:02:00,
2013-06-08 19:07:00,72.3,48.0,30.13,ENE,60,0.0,3.0,42,0.00,,,0.00,meteohub,2013-06-08 23:07:00,
2013-06-08 19:12:00,72.1,47.8,30.13,ESE,107,0.0,4.0,42,0.00,,,0.00,meteohub,2013-06-08 23:12:00,
2013-06-08 19:17:00,72.0,47.7,30.13,SSE,151,3.0,4.0,42,0.00,,,0.00,meteohub,2013-06-08 23:17:00,
2013-06-08 19:22:00,72.0,47.7,30.13,ESE,115,0.0,4.0,42,0.00,,,0.00,meteohub,2013-06-08 23:22:00,
2013-06-08 19:27:00,71.8,47.5,30.13,SE,136,0.0,4.0,42,0.00,,,0.00,meteohub,2013-06-08 23:27:00,
2013-06-08 19:32:00,71.8,47.5,30.13,SE,141,0.0,4.0,42,0.00,,,0.00,meteohub,2013-06-08 23:32:00,
2013-06-08 19:37:00,71.6,47.8,30.13,SE,141,0.0,4.0,43,0.00,,,0.00,meteohub,2013-06-08 23:37:00,
2013-06-08 19:42:00,71.4,48.4,30.13,SSE,147,0.0,3.0,44,0.00,,,0.00,meteohub,2013-06-08 23:42:00,
2013-06-08 19:47:00,71.2,48.2,30.13,SE,134,0.0,3.0,44,0.00,,,0.00,meteohub,2013-06-08 23:47:00,
2013-06-08 19:52:00,71.1,48.0,30.13,SE,125,0.0,4.0,44,0.00,,,0.00,meteohub,2013-06-08 23:52:00,
2013-06-08 19:57:00,70.9,47.8,30.13,SE,141,0.0,4.0,44,0.00,,,0.00,meteohub,2013-06-08 23:57:00,
2013-06-08 20:02:00,70.7,48.4,30.13,SE,140,0.0,3.0,45,0.00,,,0.00,meteohub,2013-06-09 00:02:00,
2013-06-08 20:07:00,70.5,48.7,30.13,SE,140,0.0,0.0,46,0.00,,,0.00,meteohub,2013-06-09 00:07:00,
2013-06-08 20:12:00,70.2,48.9,30.13,SE,140,0.0,0.0,47,0.00,,,0.00,meteohub,2013-06-09 00:12:00,
2013-06-08 20:17:00,69.8,49.3,30.13,SE,140,0.0,0.0,48,0.00,,,0.00,meteohub,2013-06-09 00:17:00,
2013-06-08 20:22:00,69.4,49.5,30.13,SE,140,0.0,0.0,49,0.00,,,0.00,meteohub,2013-06-09 00:22:00,
2013-06-08 20:28:00,69.1,49.6,30.13,SE,140,0.0,0.0,50,0.00,,,0.00,meteohub,2013-06-09 00:28:00,
2013-06-08 20:33:00,68.5,49.6,30.13,SE,140,0.0,0.0,51,0.00,,,0.00,meteohub,2013-06-09 00:33:00,
2013-06-08 20:38:00,68.0,50.2,30.13,SE,140,0.0,0.0,53,0.00,,,0.00,meteohub,2013-06-09 00:38:00,
2013-06-08 20:43:00,67.6,50.9,30.13,SE,140,0.0,0.0,55,0.00,,,0.00,meteohub,2013-06-09 00:43:00,
2013-06-08 20:48:00,67.1,50.9,30.13,SE,140,0.0,0.0,56,0.00,,,0.00,meteohub,2013-06-09 00:48:00,
2013-06-08 20:53:00,66.6,51.3,30.13,SE,140,0.0,0.0,58,0.00,,,0.00,meteohub,2013-06-09 00:53:00,
2013-06-08 20:58:00,66.0,51.3,30.13,SE,138,0.0,0.0,59,0.00,,,0.00,meteohub,2013-06-09 00:58:00,
2013-06-08 21:03:00,65.7,51.8,30.13,SE,138,0.0,3.0,61,0.00,,,0.00,meteohub,2013-06-09 01:03:00,
2013-06-08 21:08:00,65.3,52.0,30.13,SE,138,0.0,3.0,62,0.00,,,0.00,meteohub,2013-06-09 01:08:00,
2013-06-08 21:13:00,64.9,52.0,30.16,SE,138,0.0,3.0,63,0.00,,,0.00,meteohub,2013-06-09 01:13:00,
2013-06-08 21:18:00,64.6,51.6,30.16,SE,138,0.0,3.0,63,0.00,,,0.00,meteohub,2013-06-09 01:18:00,
2013-06-08 21:23:00,64.2,52.2,30.16,SE,138,0.0,3.0,65,0.00,,,0.00,meteohub,2013-06-09 01:23:00,
2013-06-08 21:28:00,64.0,52.5,30.16,SE,138,0.0,0.0,66,0.00,,,0.00,meteohub,2013-06-09 01:28:00,
2013-06-08 21:34:00,63.7,52.2,30.16,SE,138,0.0,0.0,66,0.00,,,0.00,meteohub,2013-06-09 01:34:00,
2013-06-08 21:39:00,63.5,52.3,30.16,SE,138,0.0,0.0,67,0.00,,,0.00,meteohub,2013-06-09 01:39:00,
2013-06-08 21:44:00,63.1,52.3,30.16,SE,138,0.0,0.0,68,0.00,,,0.00,meteohub,2013-06-09 01:44:00,
2013-06-08 21:49:00,63.0,52.2,30.16,SE,138,0.0,0.0,68,0.00,,,0.00,meteohub,2013-06-09 01:49:00,
2013-06-08 21:54:00,62.6,52.3,30.16,SE,138,0.0,0.0,69,0.00,,,0.00,meteohub,2013-06-09 01:54:00,
2013-06-08 21:59:00,62.4,52.5,30.16,SE,138,0.0,0.0,70,0.00,,,0.00,meteohub,2013-06-09 01:59:00,
2013-06-08 22:04:00,62.2,52.7,30.16,SE,138,0.0,0.0,71,0.00,,,0.00,meteohub,2013-06-09 02:04:00,
2013-06-08 22:09:00,62.1,52.5,30.16,SE,138,0.0,0.0,71,0.00,,,0.00,meteohub,2013-06-09 02:09:00,
2013-06-08 22:14:00,61.9,52.7,30.16,SE,138,0.0,0.0,72,0.00,,,0.00,meteohub,2013-06-09 02:14:00,
2013-06-08 22:19:00,61.7,52.5,30.16,SE,138,0.0,0.0,72,0.00,,,0.00,meteohub,2013-06-09 02:19:00,
2013-06-08 22:24:00,61.3,52.7,30.16,SE,138,0.0,0.0,73,0.00,,,0.00,meteohub,2013-06-09 02:24:00,
2013-06-08 22:29:00,61.3,52.7,30.19,SE,138,0.0,0.0,73,0.00,,,0.00,meteohub,2013-06-09 02:29:00,
2013-06-08 22:34:00,61.2,52.9,30.19,SE,138,0.0,0.0,74,0.00,,,0.00,meteohub,2013-06-09 02:34:00,
2013-06-08 22:39:00,60.8,52.5,30.19,SE,138,0.0,0.0,74,0.00,,,0.00,meteohub,2013-06-09 02:39:00,
2013-06-08 22:44:00,60.6,52.7,30.19,SE,138,0.0,0.0,75,0.00,,,0.00,meteohub,2013-06-09 02:44:00,
2013-06-08 22:49:00,60.6,53.1,30.19,SE,138,0.0,0.0,76,0.00,,,0.00,meteohub,2013-06-09 02:49:00,
2013-06-08 22:55:00,60.4,53.2,30.19,SE,138,0.0,0.0,77,0.00,,,0.00,meteohub,2013-06-09 02:55:00,
2013-06-08 23:00:00,60.1,52.9,30.19,SE,138,0.0,0.0,77,0.00,,,0.00,meteohub,2013-06-09 03:00:00,
2013-06-08 23:05:00,60.1,53.2,30.19,SE,138,0.0,0.0,78,0.00,,,0.00,meteohub,2013-06-09 03:05:00,
2013-06-08 23:10:00,60.1,53.2,30.19,SE,138,0.0,0.0,78,0.00,,,0.00,meteohub,2013-06-09 03:10:00,
2013-06-08 23:15:00,59.9,53.4,30.19,SE,138,0.0,0.0,79,0.00,,,0.00,meteohub,2013-06-09 03:15:00,
2013-06-08 23:20:00,59.7,53.6,30.19,SE,138,0.0,0.0,80,0.00,,,0.00,meteohub,2013-06-09 03:20:00,
2013-06-08 23:25:00,59.7,53.6,30.19,SE,138,0.0,0.0,80,0.00,,,0.00,meteohub,2013-06-09 03:25:00,
2013-06-08 23:30:00,59.5,53.8,30.19,SE,138,0.0,0.0,81,0.00,,,0.00,meteohub,2013-06-09 03:30:00,
2013-06-08 23:35:00,59.5,53.8,30.19,SE,138,0.0,0.0,81,0.00,,,0.00,meteohub,2013-06-09 03:35:00,
2013-06-08 23:40:00,59.4,53.6,30.19,SE,138,0.0,0.0,81,0.00,,,0.00,meteohub,2013-06-09 03:40:00,
2013-06-08 23:45:00,59.2,53.4,30.19,SE,138,0.0,0.0,81,0.00,,,0.00,meteohub,2013-06-09 03:45:00,
2013-06-08 23:50:00,59.0,53.2,30.19,SE,138,0.0,0.0,81,0.00,,,0.00,meteohub,2013-06-09 03:50:00,
2013-06-08 23:55:00,58.8,53.4,30.19,SE,138,0.0,0.0,82,0.00,,,0.00,meteohub,2013-06-09 03:55:00,